Stations météo

Publicité
Tarbes/Ossun, France (7621): Température de l'air & dewpoint: 06.12.2018 19:00:00 - 12.12.2018 19:00:00 (CET)Tarbes/Ossun, France (7621): Température de l'air 5cm: 06.12.2018 19:00:00 - 12.12.2018 19:00:00 (CET)Tarbes/Ossun, France (7621): Température de l'air -20cm & Température de l'air -100cm: 06.12.2018 19:00:00 - 12.12.2018 19:00:00 (CET)Tarbes/Ossun, France (7621): Vitesse du vent & gusts: 06.12.2018 19:00:00 - 12.12.2018 19:00:00 (CET)Tarbes/Ossun, France (7621): Direction du vent: 06.12.2018 19:00:00 - 12.12.2018 19:00:00 (CET)Tarbes/Ossun, France (7621): reduced air pressure: 06.12.2018 19:00:00 - 12.12.2018 19:00:00 (CET)Tarbes/Ossun, France (7621): visibility: 06.12.2018 19:00:00 - 12.12.2018 19:00:00 (CET)Tarbes/Ossun, France (7621): Ensoleillement: 06.12.2018 19:00:00 - 12.12.2018 19:00:00 (CET)Tarbes/Ossun, France (7621): Quantités de précipitations: 06.12.2018 19:00:00 - 12.12.2018 19:00:00 (CET)
Date & Time tt [°C] td [°C] tt 5cm [°C] tt -20cm [°C] tt -100cm [°C] ff [km/h] ff [knt] fx [km/h] fx [knt] dd ppp [hPa] vv [km] sd [min] rr [mm]
12.12.2018 19:00:00 7,9 5,7 7,3 9,6 12,0 6 4 8 4 S 1017,2 30 0 0,0
12.12.2018 18:00:00 8,1 5,6 7,4 9,5 12,0 5 3 12 7 SW 1017,8 7 0 0,0
12.12.2018 17:00:00 9,2 5,9 8,4 9,5 12,0 10 5 16 9 SW 1018,1 36 0 0,0
12.12.2018 16:00:00 9,7 6,6 9,4 9,4 12,0 9 5 17 9 SW 1018,2 35 0 0,0
12.12.2018 15:00:00 9,9 7,0 9,9 9,3 12,0 12 6 21 11 SW 1018,7 34 0 0,0
12.12.2018 14:00:00 9,9 7,1 10,6 9,3 12,0 17 9 27 14 SW 1019,5 30 0 0,0
12.12.2018 13:00:00 10,4 8,0 10,2 9,2 12,0 16 9 27 15 WSW 1020,2 26 5 0,0
12.12.2018 12:00:00 9,9 8,5 9,5 9,2 12,0 15 8 30 16 W 1021,1 27 0 0,6
12.12.2018 11:00:00 9,6 8,5 9,4 9,2 12,0 13 7 34 18 W 1021,6 19 0 1,0
12.12.2018 10:00:00 9,8 9,2 9,3 9,1 12,0 14 7 - - W 1021,4 2,5 0 1,6
12.12.2018 09:00:00 9,7 8,9 8,5 9,1 12,1 21 12 37 20 W 1021,3 2,4 0 1,2
12.12.2018 08:00:00 9,3 8,2 7,2 9,1 12,0 12 7 26 14 SW 1020,9 3,0 0 0,2
12.12.2018 07:00:00 8,6 5,3 7,1 9,1 12,1 13 7 23 13 SSW 1021,1 41 0 0,0
12.12.2018 06:00:00 10,6 7,8 7,6 9,2 12,1 16 9 26 14 W 1020,9 10 0 0,0
12.12.2018 05:00:00 11,1 6,2 6,5 9,2 12,1 14 7 34 18 WSW 1021,3 35 0 0,0
12.12.2018 04:00:00 10,2 4,8 1,9 9,3 12,1 23 12 37 20 WSW 1021,7 19 0 0,0
12.12.2018 03:00:00 6,2 1,5 2,6 9,4 12,1 9 5 27 15 WSW 1022,7 37 0 0,0
12.12.2018 02:00:00 7,9 3,0 3,8 9,4 12,1 12 7 22 12 WSW 1022,2 35 0 0,0
12.12.2018 01:00:00 8,0 1,8 2,0 9,5 12,1 6 3 35 19 S 1021,8 40 0 0,0
12.12.2018 00:00:00 5,4 1,9 1,3 9,5 12,1 7 4 13 7 SSW 1022,1 28 0 0,0
11.12.2018 23:00:00 1,8 0,2 1,4 9,6 12,1 5 3 9 5 SSE 1022,3 12 0 0,0
11.12.2018 22:00:00 2,5 1,8 1,6 9,6 12,1 5 3 10 5 SE 1021,8 14 0 0,0
11.12.2018 21:00:00 2,7 2,0 1,6 9,6 12,1 4 2 9 5 S 1021,7 12 0 0,0
11.12.2018 20:00:00 2,5 1,6 2,0 9,6 12,1 7 4 9 5 S 1021,8 17 0 0,0
11.12.2018 19:00:00 3,5 2,0 2,5 9,6 12,1 9 5 10 5 SW 1021,8 24 0 0,0
11.12.2018 18:00:00 6,6 3,4 3,0 9,6 12,1 2 1 10 6 NNW 1021,1 27 0 0,0
11.12.2018 17:00:00 8,6 4,6 7,1 9,5 12,1 7 4 14 7 N 1020,4 29 40 0,0
11.12.2018 16:00:00 11,2 5,5 11,8 9,4 12,1 11 6 14 8 N 1020,1 56 47 0,0
11.12.2018 15:00:00 11,3 4,5 13,0 9,4 12,1 5 3 19 10 NE 1020,0 36 44 0,0
11.12.2018 14:00:00 11,1 4,5 12,5 9,4 12,1 6 4 16 9 ENE 1020,9 20 60 0,0
11.12.2018 13:00:00 9,6 4,2 10,4 9,4 12,1 9 5 19 10 NNE 1022,1 32 60 0,0
11.12.2018 12:00:00 8,0 4,8 6,9 9,5 12,1 7 4 16 8 NNE 1023,0 20 58 0,0
11.12.2018 11:00:00 4,6 4,0 3,2 9,6 12,1 6 4 11 6 NNE 1024,4 12 57 0,0
11.12.2018 10:00:00 2,1 1,8 0,0 9,7 12,1 3 1 9 5 N 1024,5 15 60 0,0
11.12.2018 09:00:00 -0,5 -0,9 -0,7 9,8 12,1 2 1 5 3 SSW 1025,0 18 14 0,0
11.12.2018 08:00:00 -0,8 -1,2 -0,6 9,9 12,1 4 2 9 5 SW 1025,0 26 0 0,0
11.12.2018 07:00:00 -0,5 -0,9 -0,3 10,0 12,1 3 2 7 4 S 1025,6 0,5 0 0,0
11.12.2018 06:00:00 0,1 -0,6 -0,2 10,1 12,1 0 0 7 4 N 1026,4 24 0 0,0
11.12.2018 05:00:00 0,5 -0,1 0,3 10,2 12,1 4 2 7 4 S 1027,4 11 0 0,0
11.12.2018 04:00:00 1,3 0,7 0,7 10,3 12,1 7 4 10 5 SSE 1027,9 19 0 0,0
11.12.2018 03:00:00 1,0 0,4 1,2 10,3 12,1 7 4 10 5 SSW 1028,4 9 0 0,0
11.12.2018 02:00:00 2,4 1,7 1,1 10,4 12,1 2 1 5 3 NW 1028,3 15 0 0,0
11.12.2018 01:00:00 3,9 2,7 1,5 10,4 12,1 3 1 5 3 N 1028,7 10 0 0,0
11.12.2018 00:00:00 5,6 3,9 3,1 10,4 12,1 3 1 9 5 W 1028,9 17 0 0,0
10.12.2018 23:00:00 6,8 4,3 6,4 10,4 12,1 8 4 15 8 NNE 1029,5 18 0 0,0
10.12.2018 22:00:00 8,4 4,8 6,8 10,4 12,1 7 4 11 6 NE 1029,7 19 0 0,0
10.12.2018 21:00:00 8,8 4,8 7,4 10,4 12,1 5 3 7 4 ENE 1030,3 20 0 0,0
10.12.2018 20:00:00 8,8 5,5 8,3 10,4 12,2 3 2 8 5 SSE 1030,6 31 0 0,0
10.12.2018 19:00:00 9,5 4,9 8,6 10,4 12,1 4 2 13 7 NE 1030,7 32 0 0,0
10.12.2018 18:00:00 9,7 5,5 8,9 10,3 12,1 8 4 15 8 NNE 1030,9 34 0 0,0
10.12.2018 17:00:00 10,3 5,9 10,1 10,3 12,1 7 4 13 7 N 1030,7 44 0 0,0
10.12.2018 16:00:00 10,9 5,0 11,2 10,2 12,1 9 5 16 8 N 1030,8 44 0 0,0
10.12.2018 15:00:00 11,0 5,3 12,3 10,2 12,2 5 3 16 9 NW 1031,2 42 0 0,0
10.12.2018 14:00:00 11,5 6,2 10,7 10,1 12,1 13 7 23 12 NNW 1031,7 20 37 0,0
10.12.2018 13:00:00 10,6 6,0 11,6 10,1 12,1 13 7 24 13 NW 1032,7 39 48 0,0
10.12.2018 12:00:00 10,9 5,8 10,1 10,2 12,1 9 5 18 10 W 1033,3 20 24 0,0
10.12.2018 11:00:00 10,9 6,2 7,3 10,2 12,1 9 5 20 11 WSW 1033,9 20 52 0,0
10.12.2018 10:00:00 7,4 4,2 5,5 10,3 12,1 13 7 17 9 S 1034,8 33 47 0,0
10.12.2018 09:00:00 5,5 3,7 3,2 10,4 12,1 11 6 16 9 S 1034,7 41 9 0,0
10.12.2018 08:00:00 4,3 2,0 2,8 10,4 12,1 14 8 18 10 S 1034,6 40 0 0,0
10.12.2018 07:00:00 4,7 2,4 3,5 10,5 12,1 11 6 14 7 S 1034,3 40 0 0,0
10.12.2018 06:00:00 5,7 3,0 5,2 10,5 12,2 10 6 14 8 S 1034,0 42 0 0,0
10.12.2018 05:00:00 6,5 4,5 4,5 10,6 12,2 13 7 16 8 S 1034,0 42 0 0,0
10.12.2018 04:00:00 5,4 2,6 4,8 10,6 12,1 10 5 19 11 SW 1034,7 36 0 0,0
10.12.2018 03:00:00 7,9 4,8 5,2 10,6 12,1 16 9 22 12 SW 1034,5 34 0 0,0
10.12.2018 02:00:00 8,9 4,9 6,7 10,6 12,2 14 8 24 13 SW 1034,6 34 0 0,0
10.12.2018 01:00:00 9,7 6,2 8,0 10,7 12,2 12 7 25 14 WSW 1034,6 16 0 0,0
10.12.2018 00:00:00 9,4 6,7 7,4 10,7 12,2 17 9 26 14 WSW 1034,5 15 0 0,0
09.12.2018 23:00:00 9,0 6,8 7,6 10,7 12,2 11 6 25 13 SW 1034,4 15 0 0,0
09.12.2018 22:00:00 9,8 6,9 7,9 10,7 12,1 13 7 24 13 WSW 1034,3 10 0 0,0
09.12.2018 21:00:00 9,9 6,4 8,2 10,7 12,2 18 10 27 15 SW 1034,1 14 0 0,0
09.12.2018 20:00:00 10,4 6,5 8,5 10,7 12,2 18 10 33 18 WSW 1033,7 14 0 0,0
09.12.2018 19:00:00 10,3 7,0 8,7 10,7 12,2 19 10 56 31 WSW 1032,7 15 0 0,0
09.12.2018 18:00:00 10,4 7,6 8,9 10,7 12,2 22 12 49 26 W 1031,8 13 0 0,2
09.12.2018 17:00:00 10,9 7,4 9,3 10,6 12,1 19 10 39 21 W 1030,8 17 0 0,2
09.12.2018 16:00:00 10,0 8,4 9,8 10,6 12,2 17 9 58 31 W 1030,7 10 1 0,2
09.12.2018 15:00:00 11,8 7,9 11,5 10,6 12,2 30 16 54 29 W 1030,1 18 0 0,0
09.12.2018 14:00:00 11,7 7,6 11,5 10,5 12,1 39 21 62 34 W 1029,7 20 14 0,0
09.12.2018 13:00:00 11,6 9,0 10,9 10,5 12,2 33 18 60 33 W 1029,8 19 0 0,0
09.12.2018 12:00:00 12,4 8,1 12,2 10,5 12,2 36 19 67 36 W 1030,0 20 1 0,0
09.12.2018 11:00:00 12,4 8,5 10,8 10,5 12,2 31 17 57 31 W 1029,9 19 12 0,0
09.12.2018 10:00:00 12,2 8,7 10,3 10,4 12,2 35 19 55 30 W 1029,5 20 49 0,0
09.12.2018 09:00:00 11,8 8,5 9,9 10,4 12,2 24 13 59 32 W 1029,3 35 15 0,0
09.12.2018 08:00:00 12,2 8,5 10,1 10,5 12,2 36 19 56 30 W 1028,4 54 0 0,0
09.12.2018 07:00:00 11,8 9,7 10,4 10,4 12,2 30 16 56 30 W 1028,5 37 0 0,0
09.12.2018 06:00:00 12,5 9,3 10,5 10,5 12,2 26 14 56 30 W 1028,4 58 0 0,0
09.12.2018 05:00:00 12,8 8,9 9,6 10,4 12,2 22 12 44 24 W 1027,7 60 0 0,0
09.12.2018 04:00:00 13,0 7,7 8,9 10,5 12,2 25 13 41 22 W 1027,8 60 0 0,0
09.12.2018 03:00:00 11,7 5,6 9,2 10,5 12,2 15 8 26 14 WSW 1027,5 60 0 0,0
09.12.2018 02:00:00 11,8 4,7 8,5 10,5 12,2 14 8 27 15 WSW 1027,6 60 0 0,0
09.12.2018 01:00:00 12,4 4,1 - - - 18 10 31 17 WSW 1028,0 55 - -
09.12.2018 00:00:00 12,6 3,0 8,0 10,5 12,2 15 8 28 15 WSW 1027,6 60 0 0,0
08.12.2018 23:00:00 12,3 2,7 8,1 10,6 12,2 16 8 27 15 WSW 1027,5 60 0 0,0
08.12.2018 22:00:00 12,0 2,7 5,9 10,6 12,2 13 7 20 11 WSW 1027,2 60 0 0,0
08.12.2018 21:00:00 9,1 2,6 6,9 10,6 12,2 11 6 27 15 SW 1027,7 60 0 0,0
08.12.2018 20:00:00 11,2 2,7 7,5 10,6 12,2 16 9 31 17 SW 1027,0 55 0 0,0
08.12.2018 19:00:00 10,4 5,4 8,1 10,5 12,2 8 4 15 8 SSE 1027,4 53 0 0,0
08.12.2018 18:00:00 10,0 5,6 8,3 10,5 12,2 13 7 22 12 SSW 1027,8 50 0 0,0
08.12.2018 17:00:00 10,7 5,0 8,4 10,4 12,2 10 5 22 12 W 1027,9 49 45 0,0
08.12.2018 16:00:00 12,3 5,7 11,5 10,4 12,2 13 7 34 18 W 1027,8 33 60 0,0
08.12.2018 15:00:00 12,3 5,5 12,0 10,4 12,1 19 10 32 17 W 1028,5 20 17 0,0
08.12.2018 14:00:00 11,9 5,5 11,4 10,3 12,2 19 10 33 18 W 1029,1 44 19 0,0
08.12.2018 13:00:00 12,0 5,2 10,5 10,3 12,2 18 10 34 18 W 1029,5 40 42 0,0
08.12.2018 12:00:00 12,0 4,9 9,3 10,4 12,2 19 10 31 17 W 1030,0 55 60 0,0
08.12.2018 11:00:00 10,8 5,1 8,5 10,4 12,2 16 9 32 17 WSW 1030,6 59 14 0,0
08.12.2018 10:00:00 9,5 5,5 6,7 10,5 12,2 16 9 26 14 SW 1030,0 56 23 0,0
08.12.2018 09:00:00 8,5 4,9 5,8 10,5 12,2 20 11 35 19 WSW 1030,6 20 1 0,0
08.12.2018 08:00:00 7,8 4,4 5,2 10,6 12,2 11 6 26 14 WSW 1030,4 49 0 0,0
08.12.2018 07:00:00 7,8 4,7 5,7 10,6 12,2 16 9 23 13 SW 1029,7 40 0 0,0
08.12.2018 06:00:00 7,6 4,7 5,7 10,7 12,2 16 9 27 14 SW 1029,4 49 0 0,0
08.12.2018 05:00:00 8,2 5,1 4,6 10,7 12,2 15 8 24 13 WSW 1029,2 44 0 0,2
08.12.2018 04:00:00 6,3 4,1 4,1 10,8 12,2 13 7 21 11 SW 1029,4 44 0 0,0
08.12.2018 03:00:00 7,1 4,2 4,9 10,8 12,2 11 6 26 14 SW 1029,3 44 0 0,0
08.12.2018 02:00:00 8,2 5,3 5,7 10,8 12,1 16 9 29 16 SW 1028,8 45 0 0,0
08.12.2018 01:00:00 7,8 5,4 6,1 10,8 12,2 13 7 23 12 WSW 1029,1 42 0 0,0
08.12.2018 00:00:00 8,1 6,2 6,8 10,9 12,2 16 9 35 19 SW 1029,1 40 0 0,0
07.12.2018 23:00:00 8,4 6,7 7,6 10,8 12,2 16 8 31 17 SW 1029,2 36 0 0,4
07.12.2018 22:00:00 9,2 7,0 8,2 10,9 12,2 20 11 58 32 W 1029,2 20 0 0,4
07.12.2018 21:00:00 9,8 8,9 9,4 10,8 12,1 29 16 43 23 WNW 1028,0 6 0 1,6
07.12.2018 20:00:00 9,7 8,8 9,3 10,8 12,2 17 9 63 34 WNW 1027,1 3,8 0 1,0
07.12.2018 19:00:00 11,7 9,8 10,7 10,7 12,2 22 12 41 22 W 1025,9 9 0 0,2
07.12.2018 18:00:00 12,3 9,3 10,8 10,7 12,2 21 11 39 21 WSW 1025,0 59 0 0,0
07.12.2018 17:00:00 13,3 8,4 11,6 10,6 12,1 24 13 44 24 W 1024,3 19 0 0,0
07.12.2018 16:00:00 15,3 7,3 13,1 10,5 12,1 10 5 18 10 WSW 1022,9 60 0 0,0
07.12.2018 15:00:00 15,9 7,6 15,4 10,4 12,1 10 5 27 15 WSW 1022,6 60 24 0,0
07.12.2018 14:00:00 15,8 7,5 14,7 10,4 12,1 12 7 26 14 W 1022,5 60 60 0,0
07.12.2018 13:00:00 14,9 6,2 13,3 10,4 12,1 10 6 28 15 W 1023,2 60 60 0,0
07.12.2018 12:00:00 14,6 5,9 10,0 10,5 12,1 - - - - - 1024,5 - 60 0,0
07.12.2018 11:00:00 11,0 5,9 7,4 10,5 12,1 14 8 21 11 S 1026,3 60 60 0,0
07.12.2018 10:00:00 8,5 5,4 3,9 10,6 12,1 10 5 14 8 S 1027,0 60 60 0,0
07.12.2018 09:00:00 5,6 3,4 2,3 10,7 12,1 11 6 16 9 SSE 1027,2 38 17 0,0
07.12.2018 08:00:00 4,0 2,5 2,5 10,8 12,2 8 4 14 8 SSW 1027,0 45 0 0,0
07.12.2018 07:00:00 5,1 3,3 3,7 10,9 12,1 11 6 16 9 S 1026,8 45 0 0,0
07.12.2018 06:00:00 6,1 4,6 3,8 11,0 12,1 11 6 17 9 SSE 1027,2 43 0 0,0
07.12.2018 05:00:00 5,5 4,3 3,9 11,1 12,1 11 6 17 9 S 1027,7 46 0 0,0
07.12.2018 04:00:00 5,3 4,6 3,4 11,1 12,1 13 7 15 8 S 1028,3 39 0 0,0
07.12.2018 03:00:00 4,9 4,0 3,6 11,2 12,1 10 5 15 8 S 1028,7 37 0 0,0
07.12.2018 02:00:00 5,7 4,8 4,7 11,3 12,1 11 6 18 10 SSW 1028,8 45 0 0,0
07.12.2018 01:00:00 6,7 5,6 5,1 11,4 12,1 7 4 15 8 S 1029,4 20 0 0,0
07.12.2018 00:00:00 6,6 6,2 4,9 11,4 12,1 9 5 12 7 SSE 1030,0 18 0 0,0
06.12.2018 23:00:00 7,3 6,9 5,4 11,5 12,1 9 5 13 7 SSE 1030,1 16 0 0,0
06.12.2018 22:00:00 6,1 5,2 5,1 11,5 12,1 6 3 12 7 SW 1030,8 13 0 0,0
06.12.2018 21:00:00 7,9 6,4 6,0 11,5 12,1 6 4 14 7 S 1030,8 18 0 0,0
06.12.2018 20:00:00 10,0 8,6 7,6 11,5 12,1 10 6 18 10 W 1030,6 28 0 0,0
06.12.2018 19:00:00 10,0 8,9 7,8 11,5 12,1 9 5 17 9 W 1030,2 30 0 0,0

tt = Température de l'air
td = dewpoint
tt 5cm = Température de l'air 5cm
tt -20cm = Température de l'air -20cm
tt -100cm = Température de l'air -100cm
ff = Vitesse du vent
fx = gusts
dd = Direction du vent
ppp = reduced air pressure
vv = visibility
sd = Ensoleillement
rr = Quantités de précipitations

stations d'obs. à proximité